Location: Kellogg
(38.0159°N, 90.0546°W)
Time: 09:49:19
(UTC+00:00)

Altair - Pass Details

Date: 13 September 2024
Orbit: 1501 x 1682 km, 47.2° (Epoch: 07 October)

Event Time Altitude Azimuth Distance (km) Brightness Sun altitude
Rises 12:30:08 0° 287° (WNW) 4,924 9.5 8.9°
Reaches altitude 10° 12:33:28 10° 293° (WNW) 3,944 9.1 9.5°
Maximum altitude 12:43:21 52° 8° (N) 2,010 8.4 11.5°
Drops below altitude 10° 12:53:07 10° 84° (E) 3,901 11.8 13.4°
Sets 12:56:23 0° 89° (E) 4,868 12.0 14.0°
